Location: Columbia, SC
(34.0000°N, 81.0300°W)
Time: 07:07:36
(UTC-04:00)

Tiangong 1 - Visible Passes

Search period start: 30 July 2016 00:00
Search period end: 09 August 2016 00:00
Orbit: 365 x 386 km, 42.8° (Epoch: 30 July)

Date Brightness Start Highest point End Pass type
(mag) Time Alt. Az. Time Alt. Az. Time Alt. Az.
31 Jul 3.7 05:09:43 10° SSE 05:10:46 11° SE 05:11:53 10° ESE visible
01 Aug 1.7 05:42:13 16° SW 05:44:25 45° SSE 05:47:23 10° ENE visible
02 Aug 3.2 04:42:37 19° SE 04:42:37 19° SE 04:44:21 10° E visible
03 Aug 0.9 05:14:58 47° SW 05:15:43 84° SSE 05:18:48 10° ENE visible
04 Aug 3.8 04:15:13 16° E 04:15:13 16° E 04:16:02 10° ENE visible
04 Aug 2.4 05:47:14 12° W 05:49:43 31° NNW 05:52:32 10° NE visible
05 Aug 1.8 04:47:27 49° NNE 04:47:27 49° NNE 04:50:02 10° NE visible
06 Aug 2.9 05:19:37 17° NW 05:21:05 23° NNW 05:23:38 10° NE visible
07 Aug 3.6 04:19:46 21° NNE 04:19:46 21° NNE 04:21:08 10° NE visible
07 Aug 3.6 05:53:20 10° NW 05:55:21 16° N 05:57:23 10° NE visible
08 Aug 3.2 04:51:54 18° NNW 04:52:24 19° N 04:54:41 10° NE visible
